This demonstration page uses our WeatherBlox Daily Observations layout. Learn more.

39.51506, -84.39828

Hourly Observations for August 20, 2020

Temp ( °F °C ) Dew Point ( °F °C ) Humidity (%) Winds ( mph kmh ) Pressure ( in mb ) Visibility ( mi km ) Precip ( " mm )
12:15 am 00:15 Clear 60 15.4 58 14.4 94 94 Calm 30.07 1018 10 16.0934 0 0
12:35 am 00:35 Clear 59 14.9 57 14 94 94 Calm 30.07 1018 10 16.0934 0 0
12:55 am 00:55 Clear 59 15 57 13.9 93 93 N 5 7 30.07 1018 10 16.0934 0 0
1:15 am 01:15 Clear 59 15 57 13.8 93 93 Calm 30.07 1018 10 16.0934 0 0
1:35 am 01:35 Clear 58 14.5 56 13.5 94 94 Calm 30.07 1018 10 16.0934 0 0
1:55 am 01:55 Clear 60 15.4 56 13.6 89 89 Calm 30.07 1018 10 16.0934 0 0
2:15 am 02:15 Clear 58 14.7 56 13.2 91 91 Calm 30.07 1018 10 16.0934 0 0
2:35 am 02:35 Clear 56 13.6 55 13 96 96 Calm 30.06 1018 10 16.0934 0 0
2:55 am 02:55 Clear 57 13.7 55 12.6 93 93 Calm 30.07 1018 10 16.0934 0 0
3:15 am 03:15 Clear 55 12.5 54 12 97 97 Calm 30.07 1018 10 16.0934 0 0
3:35 am 03:35 Clear 55 12.6 54 12.4 99 99 Calm 30.07 1018 10 16.0934 0 0
3:55 am 03:55 Clear 55 12.9 55 12.8 99 99 Calm 30.07 1018 10 16.0934 0 0
4:15 am 04:15 Clear 54 12.4 54 12.2 99 99 N 5 7 30.07 1018 10 16.0934 0 0
4:35 am 04:35 Clear 54 12.4 53 11.9 97 97 Calm 30.07 1018 10 16.0934 0 0
4:55 am 04:55 Clear 54 12.4 54 12 97 97 Calm 30.07 1018 10 16.0934 0 0
5:15 am 05:15 Clear 55 12.9 54 12.3 96 96 Calm 30.07 1018 10 16.0934 0 0
5:35 am 05:35 Clear 55 12.6 53 11.7 94 94 Calm 30.07 1018 10 16.0934 0 0
5:55 am 05:55 Clear 54 12.3 53 11.6 96 96 Calm 30.07 1018 10 16.0934 0 0
6:15 am 06:15 Clear 54 12.4 53 11.4 94 94 Calm 30.07 1018 10 16.0934 0 0
6:35 am 06:35 Clear 55 12.7 54 12 96 96 Calm 30.07 1018 10 16.0934 0 0
6:55 am 06:55 Clear 54 12.3 53 11.9 97 97 Calm 30.07 1018 10 16.0934 0 0
7:15 am 07:15 Sunny 54 12.1 52 11.3 95 95 Calm 30.07 1018 10 16.0934 0 0
7:35 am 07:35 Sunny 55 12.9 54 12 94 94 Calm 30.07 1018 10 16.0934 0 0
7:55 am 07:55 Sunny 57 14 55 12.6 91 91 Calm 30.08 1019 10 16.0934 0 0
8:15 am 08:15 Sunny 58 14.7 55 12.7 88 88 N 3 6 30.08 1019 10 16.0934 0 0
8:35 am 08:35 Sunny 61 15.9 57 13.7 87 87 Calm 30.07 1018 10 16.0934 0 0
8:55 am 08:55 Sunny 63 17.1 56 13.4 79 79 Calm 30.07 1018 10 16.0934 0 0
9:15 am 09:15 Sunny 65 18.1 56 13.3 74 74 Calm 30.07 1018 10 16.0934 0 0
9:35 am 09:35 Sunny 66 18.9 56 13.3 70 70 NE 5 7 30.07 1018 10 16.0934 0 0
9:55 am 09:55 Sunny 67 19.7 56 13.2 66 66 Calm 30.07 1018 10 16.0934 0 0
10:15 am 10:15 Sunny 69 20.7 56 13.5 64 64 NNE 5 7 30.06 1018 10 16.0934 0 0
10:35 am 10:35 Sunny 71 21.9 56 13.4 59 59 NE 5 7 30.06 1018 10 16.0934 0 0
10:55 am 10:55 Sunny 73 22.9 55 12.9 53 53 ENE 6 9 30.06 1018 10 16.0934 0 0
11:15 am 11:15 Sunny 74 23.6 55 13 52 52 NNE 5 7 30.06 1018 10 16.0934 0 0
11:35 am 11:35 Sunny 76 24.3 55 12.6 48 48 NE 6 9 30.05 1018 10 16.0934 0 0
11:55 am 11:55 Sunny 78 25.3 54 12.2 44 44 E 7 11 30.05 1018 10 16.0934 0 0
12:15 pm 12:15 Sunny 76 24.7 53 11.9 45 45 N 6 9 30.05 1018 10 16.0934 0 0
12:35 pm 12:35 Sunny 78 25.5 54 12.4 44 44 NNE 8 13 30.04 1017 10 16.0934 0 0
12:55 pm 12:55 Sunny 79 26 54 12.3 43 43 NE 5 7 30.03 1017 10 16.0934 0 0
1:15 pm 13:15 Sunny 78 25.6 54 12.1 43 43 NE 7 11 30.02 1017 10 16.0934 0 0
1:35 pm 13:35 Sunny 80 26.5 54 12.1 41 41 ENE 3 6 30.01 1016 10 16.0934 0 0
1:55 pm 13:55 Sunny 79 26.2 52 11.3 39 39 NE 7 11 30.01 1016 10 16.0934 0 0
2:15 pm 14:15 Sunny 80 26.9 53 11.9 39 39 ENE 9 15 30 1016 10 16.0934 0 0
2:35 pm 14:35 Sunny 80 26.6 53 11.8 40 40 Calm 29.99 1016 10 16.0934 0 0
2:55 pm 14:55 Sunny 80 26.6 52 11.3 38 38 NE 7 11 29.98 1015 10 16.0934 0 0
3:15 pm 15:15 Sunny 80 26.9 54 12 40 40 N 6 9 29.98 1015 10 16.0934 0 0
3:35 pm 15:35 Sunny 81 27 53 11.7 39 39 NE 7 11 29.98 1015 10 16.0934 0 0
3:55 pm 15:55 Sunny 81 27.3 53 11.5 37 37 N 3 6 29.97 1015 10 16.0934 0 0
4:15 pm 16:15 Sunny 81 27.4 53 11.9 38 38 NE 7 11 29.96 1014 10 16.0934 0 0
4:35 pm 16:35 Sunny 82 27.7 54 12.2 38 38 Calm 29.95 1014 10 16.0934 0 0
4:55 pm 16:55 Sunny 82 27.5 54 12.4 39 39 E 5 7 29.94 1014 10 16.0934 0 0
5:15 pm 17:15 Sunny 81 27.4 55 12.5 40 40 NE 5 7 29.93 1013 10 16.0934 0 0
5:35 pm 17:35 Sunny 82 27.6 56 13.1 41 41 ENE 5 7 29.93 1013 10 16.0934 0 0
5:55 pm 17:55 Sunny 81 27.4 55 12.8 41 41 E 7 11 29.92 1013 10 16.0934 0 0
6:15 pm 18:15 Sunny 81 27.3 55 12.9 41 41 E 5 7 29.92 1013 10 16.0934 0 0
6:35 pm 18:35 Sunny 80 26.9 55 12.8 42 42 ENE 5 7 29.93 1014 10 16.0934 0 0
6:55 pm 18:55 Sunny 80 26.9 55 12.7 41 41 ENE 3 6 29.92 1013 10 16.0934 0 0
7:15 pm 19:15 Sunny 80 26.7 56 13.4 44 44 E 6 9 29.92 1013 10 16.0934 0 0
7:35 pm 19:35 Sunny 79 25.9 56 13.1 45 45 ESE 5 7 29.92 1013 10 16.0934 0 0
7:55 pm 19:55 Sunny 77 25.1 57 13.9 50 50 ESE 3 6 29.93 1014 10 16.0934 0 0
8:15 pm 20:15 Sunny 76 24.4 57 14.1 53 53 ESE 5 7 29.94 1014 10 16.0934 0 0
8:35 pm 20:35 Clear 73 22.7 58 14.5 60 60 Calm 29.95 1014 10 16.0934 0 0
8:55 pm 20:55 Clear 67 19.3 60 15.7 80 80 N 3 6 29.96 1014 10 16.0934 0 0
9:15 pm 21:15 Clear 65 18.2 60 15.8 86 86 Calm 29.97 1015 10 16.0934 0 0
9:35 pm 21:35 Clear 65 18.1 60 15.8 87 87 Calm 29.98 1015 7 11.26538 0 0
9:55 pm 21:55 Clear 64 17.7 60 15.3 86 86 Calm 29.97 1015 10 16.0934 0 0
10:15 pm 22:15 Clear 63 17 59 15.2 89 89 Calm 29.98 1015 10 16.0934 0 0
10:35 pm 22:35 Clear 62 16.9 59 15 89 89 Calm 29.98 1015 10 16.0934 0 0
10:55 pm 22:55 Clear 62 16.4 59 15.2 93 93 Calm 29.98 1015 10 16.0934 0 0
11:15 pm 23:15 Clear 60 15.8 59 14.9 94 94 Calm 29.98 1015 10 16.0934 0 0
11:35 pm 23:35 Clear 61 15.9 58 14.7 93 93 Calm 29.98 1015 10 16.0934 0 0
11:55 pm 23:55 Clear 60 15.8 59 14.8 94 94 Calm 29.98 1015 10 16.0934 0 0

Powered by AerisWeather